Weather past 2 weeks in Adamstown, Pitcairn Islands

Now
82 °F

Scattered clouds.


Feels Like: 88 °F
Forecast: 78 / 83 °F
Wind: 5 mph from Northeast

Location: Rikitea

Current Time: Mar 3, 2015 at 4:26:59 PM

Latest Report: Mar 3, 2015 at 3:00 PM


Visibility: 25 mi

Pressure: 30.03 "Hg

Humidity: 73%

Dew point: 73 °F

Location of AdamstownLocation

Historic Weather in Adamstown — Graph

°F

Adamstown temperature yesterday

Maximum temperature yesterday: 83 °F (at 12:00 PM)
Minimum temperature yesterday: 76 °F (at 4:00 AM)
Average temperature yesterday: 78 °F

Past Weeks' High & Low Weather Summary

 TemperatureHumidityPressure
High85 °F (Feb 19, 1:00 PM)96% (Feb 28, 2:00 AM)30.19 "Hg (Feb 28, 2:00 AM)
Low69 °F (Feb 26, 10:00 PM)65% (Feb 23, 2:00 PM)29.85 "Hg (Feb 24, 5:00 PM)
Average78 °F81%30.03 "Hg
* Reported Feb 16 3:00 PM — Mar 3 3:00 PM, Adamstown, Weather by CustomWeather, © 2015

Note: Actual official high and low records may vary slightly from our data, if they occured in-between our weather recording intervals... More about our weather records

Advertising

Adamstown weather history for previous 24 hours

 ConditionsComfort  
Time TempWeatherWind HumidityBarometerVisibility
3:00 PM
Tue, Mar 3
82 °FScattered clouds.5 mph73%30.03 "Hg25 mi
2:00 PM82 °FPassing clouds.6 mph70%30.04 "Hg25 mi
1:00 PM83 °FPassing clouds.6 mph73%30.07 "Hg19 mi
12:00 PM82 °FPartly sunny.7 mph73%30.08 "Hg19 mi
11:00 AM80 °FOvercast.7 mph76%30.10 "Hg19 mi
10:00 AM79 °FPartly sunny.6 mph80%30.11 "Hg19 mi
9:00 AM78 °FOvercast.5 mph81%30.10 "Hg19 mi
8:00 AM78 °FOvercast.5 mph78%30.08 "Hg19 mi
7:00 AM76 °FOvercast.6 mph79%30.06 "Hg9 mi
6:00 AM77 °FMild.N/A82%30.05 "HgN/A
5:00 AM77 °FMild.N/A85%30.03 "HgN/A
4:00 AM76 °FMild.N/A84%30.03 "HgN/A
3:00 AM76 °FMild.N/A85%30.05 "HgN/A
2:00 AM76 °FMild.N/A89%30.06 "HgN/A
1:00 AM77 °FWarm.7 mph82%30.07 "HgN/A
12:00 AM78 °FWarm.7 mph82%30.09 "HgN/A
11:00 PM
Mon, Mar 2
78 °FWarm.7 mph81%30.09 "HgN/A
10:00 PM78 °FWarm.7 mph81%30.09 "HgN/A
9:00 PM78 °FWarm.8 mph81%30.07 "HgN/A
8:00 PM78 °FWarm.7 mph81%30.06 "HgN/A
7:00 PM78 °FWarm.7 mph80%30.04 "HgN/A
6:00 PM79 °FOvercast.8 mph79%30.03 "Hg19 mi
5:00 PM80 °FOvercast.7 mph79%30.01 "Hg19 mi
4:00 PM80 °FOvercast.7 mph78%30.01 "Hg19 mi
Weather by CustomWeather, © 2015

See weather overviewHow to use our weather pages